Location: Ferma
(41.9500°N, 44.5167°E)
Time: 03:21:47
(UTC+00:00)

NOSS 2-3 (D) - Pass Details

Date: 05 June 2022
Orbit: 536 x 1674 km, 63.3° (Epoch: 02 June)

Event Time Altitude Azimuth Distance (km) Brightness Sun altitude
Rises 20:35:14 0° 300° (WNW) 3,875 8.1 -25.2°
Reaches altitude 10° 20:40:17 10° 268° (W) 3,212 7.2 -25.3°
Maximum altitude 20:42:21 11° 253° (WSW) 3,229 7.1 -25.3°
Enters shadow 20:44:20 10° 239° (WSW) 3,405 7.1 -25.3°
